Location: Bacharowice
(49.9333°N, 19.5833°E)
Time: 23:57:05
(UTC+00:00)

Cosmos 2082 Rocket - Pass Details

Date: 11 May 2021
Orbit: 834 x 853 km, 71.0° (Epoch: 21 June)

Event Time Altitude Azimuth Distance (km) Brightness Sun altitude
Rises 21:36:59 0° 322° (NW) 3,393 6.5 -20.6°
Reaches altitude 10° 21:39:51 10° 309° (NW) 2,454 5.3 -20.7°
Maximum altitude 21:44:12 24° 258° (WSW) 1,688 3.8 -20.9°
Enters shadow 21:46:21 19° 227° (SW) 1,902 3.7 -21.0°
